Location: *
(37.9500°N, 27.3666°E)
Time: 13:14:06
(UTC+00:00)

Cosmos 1328 - Pass Details

Date: 24 October 2021
Orbit: 529 x 552 km, 82.5° (Epoch: 02 December)

Event Time Altitude Azimuth Distance (km) Brightness Sun altitude
Rises 15:45:07 0° 2° (N) 2,733 7.2 -5.5°
Reaches altitude 10° 15:47:25 10° 11° (N) 1,835 6.3 -5.9°
Maximum altitude 15:51:10 36° 78° (ENE) 884 4.4 -6.6°
Drops below altitude 10° 15:54:53 10° 147° (SSE) 1,822 6.2 -7.4°
Sets 15:57:10 0° 155° (SSE) 2,710 7.2 -7.8°
